KUIPER-00056

导读

KUIPER-00056是美国亚马逊柯伊伯计划的低轨卫星互联网卫星,于2025年6月23日发射,是该星座大规模部署阶段的组网卫星之一。该项目计划发射3236颗低轨卫星,运行于590-630公里轨道,旨在为全球提供高速低延迟互联网接入,融合云通信与边缘计算,服务家庭、应急及企业客户。

基本信息
目录编号:
64516
目录名称:
KUIPER-00056
国际标识:
2025-134S
轨道中心:
EARTH
卫星名称:
KUIPER-00056
卫星全名:
KUIPER-00056
卫星状态:
在轨 (已飞行446 天)
发射日期:
2025-06-23 UTC
国别 :
美国 (US)
星等 :
--
该卫星已列入 空间交会检测服务 Space Conjunction Data Service (SCDS) ,当前飞行风险评估等级: 无高风险
轨道信息
数据来源 国际轨道数据 AOE轨道数据
星历时间 2026-09-11T09:03:43+0800
1天前
查看轨道信息
2026-09-10T22:00:00+0800
1天前
查看轨道信息
半长轴 7007.705km 7007.663km
偏心率 0.0001048 0.0001001
轨道倾角 51.903° 51.901°
近地点辐角 97.707° 89.332°
升交点赤经 123.517° 125.557°
平近点角 262.401° 333.708°
近地点 628.833km 628.824km
远地点 630.303km 630.228km
周期 97.302分钟 97.301分钟
每日圈数 14.79923 14.799362
详细信息
使用方式:
暂无
2D轨道图
3D轨道图
轨道高度分析图
轨道倾角分析图
轨道综合分析图
查看轨道综合分析图
与全量物体交会距离演化趋势
与全量物体交会风险概率演化趋势